Skip Page Navigation
NASA JPL Caltech
NASA Logo - Jet Propulsion Laboratory + View the NASA Portal
+ Center for Near-Earth Object Studies
JPL Home Earth Solar System Stars & Galaxies Technology
JPL Solar System Dynamics
BODIES ORBITS EPHEMERIDES TOOLS PHYSICAL DATA DISCOVERY FAQ SITE MAP
JPL Small-Body Database Browser
Search: [ help ]  
129495 (1995 DP6)
Classification: Main-belt Asteroid          SPK-ID: 2129495
Ephemeris | Orbit Diagram | Orbital Elements | Mission Design | Physical Parameters | Discovery Circumstances | Close-Approach Data ]

[ show orbit diagram ]
Orbital Elements at Epoch 2459000.5 (2020-May-31.0) TDB
Reference: JPL 17 (heliocentric ecliptic J2000)
 Element Value Uncertainty (1-sigma)   Units 
e .1667592416836065 3.4682e-08  
a 2.315030448461742 1.0053e-08 au
q 1.928977726401803 7.9762e-08 au
i 3.221550042649505 4.4013e-06 deg
node 146.0170807646913 6.7014e-05 deg
peri 238.7064708331538 6.8287e-05 deg
M 188.1786598858041 1.3138e-05 deg
tp 2459614.556155538178
(2022-Feb-04.05615554)
4.8443e-05 TDB
period 1286.570200458355
3.52
8.3805e-06
2.294e-08
d
yr
n .2798137247946096 1.8227e-09 deg/d
Q 2.701083170521681 1.173e-08 au
  Orbit Determination Parameters
   # obs. used (total)      378  
   data-arc span      9193 days (25.17 yr)  
   first obs. used      1995-02-24  
   last obs. used      2020-04-26  
   planetary ephem.      DE431  
   SB-pert. ephem.      SB431-N16  
   condition code      0  
   norm. resid. RMS      .57458  
   source      ORB  
   producer      Otto Matic  
   solution date      2020-May-20 21:44:48  

Additional Information
 Earth MOID = .934906 au 
 Jupiter MOID = 2.75143 au 
 T_jup = 3.561 
[ show covariance matrix ]

Ephemeris | Orbit Diagram | Orbital Elements | Mission Design | Physical Parameters | Discovery Circumstances | Close-Approach Data ]

Physical Parameter Table
Parameter Symbol Value Units Sigma Reference Notes
absolute magnitude H 16.8   n/a MPO417675  

129495 (1995 DP6)          Discovered 1995-Feb-24 by Spacewatch at Kitt Peak
Reference: 20060711/Numbers.arcLast Updated: 2006-07-17

[ show close-approach data ]
Alternate Designations
 1995 DP6 = 1995 FX18 = 2000 QS113 
Ephemeris | Orbit Diagram | Orbital Elements | Mission Design | Physical Parameters | Discovery Circumstances | Close-Approach Data ]
ABOUT SSD CREDITS/AWARDS PRIVACY/COPYRIGHT GLOSSARY LINKS
FirstGov 2020-Oct-31 05:36 UT
(server date/time)  
NASA Home Page
Site Manager:   Ryan S. Park
Webmaster  Alan B. Chamberlin